Weather History for Adak, AK

Change the Weather History Date:

Wednesday, February 13, 2013

  Actual Average Record
Temperature  
Mean Temperature 22 °F -  
Max Temperature 30 °F 37 °F 44 °F (1951)
Min Temperature 14 °F 26 °F 9 °F (1991)
Degree Days  
Heating Degree Days 43    
Moisture  
Dew Point 19 °F    
Average Humidity 70    
Maximum Humidity 86    
Minimum Humidity 53    
Precipitation  
Precipitation 0.08 in - - ()
Sea Level Pressure  
Sea Level Pressure 29.81 in    
Wind  
Wind Speed 20 mph (NNE)    
Max Wind Speed 29 mph    
Max Gust Speed 34 mph    
Visibility 8 miles    
Events      
Averages and records for this station are not official NWS values.
T = Trace of Precipitation, MM = Missing Value Source: NWS Daily Summary

Daily Weather History Graph

Daily Weather History Graph

Search for Another Location

Airport:

Trip Planner

Search our weather history database for the weather conditions in past years. The results will help you decide how hot, cold, wet, or windy it might be!

Date:

Astronomy

Feb. 13, 2013 Rise Set
Actual Time 9:04 AM HAST 6:58 PM HAST
Civil Twilight 8:29 AM HAST 7:33 PM HAST
Nautical Twilight 7:49 AM HAST 8:12 PM HAST
Astronomical Twilight 7:10 AM HAST 8:51 PM HAST
Moon 10:06 AM HAST (2/13) 11:55 PM HAST (2/13)
Length of Visible Light 11h 04m
Length of Day
9h 54m
Waxing Crescent, 15% of the Moon is Illuminated
Feb 13
Waxing Crescent
Feb 17
First Quarter
Feb 25
Full
Mar 4
Last Quarter
Mar 11
New

Hourly Weather History & Observations

Time (HAST) Temp. Windchill Dew Point Humidity Pressure Visibility Wind Dir Wind Speed Gust Speed Precip Events Conditions
12:16 AM 28.4 °F 14.4 °F 21.2 °F 74% 29.60 in 10.0 mi NNE 23.0 mph - N/A   Overcast
12:36 AM 28.4 °F 15.1 °F 19.4 °F 69% 29.60 in 10.0 mi NNE 20.7 mph 29.9 mph 0.01 in   Overcast
12:56 AM 28.4 °F 15.4 °F 17.6 °F 64% 29.60 in 10.0 mi NNE 19.6 mph 25.3 mph 0.01 in   Overcast
1:16 AM 28.4 °F 15.1 °F 17.6 °F 64% 29.60 in 10.0 mi North 20.7 mph 24.2 mph N/A   Scattered Clouds
1:36 AM 28.4 °F 15.1 °F 17.6 °F 64% 29.61 in 10.0 mi North 20.7 mph 27.6 mph N/A   Scattered Clouds
1:56 AM 28.4 °F 15.1 °F 17.6 °F 64% 29.61 in 10.0 mi NNE 20.7 mph - N/A   Overcast
2:16 AM 28.4 °F 15.1 °F 17.6 °F 64% 29.62 in 10.0 mi NNE 20.7 mph 25.3 mph N/A   Overcast
2:36 AM 28.4 °F 15.8 °F 17.6 °F 64% 29.62 in 10.0 mi NNE 18.4 mph 24.2 mph 0.01 in   Overcast
2:56 AM 28.4 °F 15.1 °F 19.4 °F 69% 29.62 in 10.0 mi NNE 20.7 mph 28.8 mph 0.01 in   Overcast
3:16 AM 28.4 °F 14.1 °F 19.4 °F 69% 29.62 in 10.0 mi NNE 24.2 mph 28.8 mph N/A   Overcast
3:36 AM 28.4 °F 14.4 °F 19.4 °F 69% 29.63 in 10.0 mi NNE 23.0 mph 28.8 mph N/A   Mostly Cloudy
3:56 AM 28.4 °F 15.1 °F 24.8 °F 86% 29.63 in 3.0 mi NE 20.7 mph 34.5 mph N/A   Mostly Cloudy
4:16 AM 28.4 °F 13.8 °F 23.0 °F 80% 29.63 in 9.0 mi NNE 25.3 mph 34.5 mph N/A   Mostly Cloudy
4:36 AM 28.4 °F 14.1 °F 19.4 °F 69% 29.64 in 10.0 mi NNE 24.2 mph 28.8 mph N/A   Overcast
4:56 AM 28.4 °F 13.8 °F 19.4 °F 69% 29.65 in 10.0 mi NNE 25.3 mph 29.9 mph 0.01 in   Overcast
5:16 AM 28.4 °F 14.4 °F 19.4 °F 69% 29.65 in 10.0 mi NNE 23.0 mph 29.9 mph N/A   Overcast
5:36 AM 28.4 °F 13.3 °F 19.4 °F 69% 29.65 in 10.0 mi NNE 27.6 mph 33.4 mph N/A   Overcast
5:56 AM 28.4 °F 14.1 °F 21.2 °F 74% 29.67 in 5.0 mi NNE 24.2 mph 33.4 mph 0.01 in   Mostly Cloudy
6:16 AM 26.6 °F 12.4 °F 21.2 °F 80% 29.67 in 1.5 mi NNE 21.9 mph - 0.02 in   Overcast
6:36 AM 26.6 °F 12.0 °F 21.2 °F 80% 29.68 in 5.0 mi NNE 23.0 mph 31.1 mph 0.02 in   Mostly Cloudy
6:56 AM 26.6 °F 11.1 °F 21.2 °F 80% 29.69 in 5.0 mi NNE 26.5 mph 32.2 mph 0.04 in   Mostly Cloudy
7:16 AM 28.4 °F 13.0 °F 19.4 °F 69% 29.70 in 8.0 mi NNE 28.8 mph 34.5 mph N/A   Mostly Cloudy
7:36 AM 26.6 °F 12.7 °F 19.4 °F 74% 29.72 in 10.0 mi NNE 20.7 mph 32.2 mph N/A   Overcast
7:56 AM 26.6 °F 13.4 °F 19.4 °F 74% 29.74 in 2.5 mi NNE 18.4 mph 26.5 mph N/A   Mostly Cloudy
8:16 AM 26.6 °F 12.4 °F 19.4 °F 74% 29.74 in 6.0 mi NNE 21.9 mph 28.8 mph N/A   Mostly Cloudy
8:36 AM 26.6 °F 12.0 °F 17.6 °F 69% 29.75 in 10.0 mi NNE 23.0 mph 27.6 mph N/A   Overcast
8:56 AM 26.6 °F 13.1 °F 19.4 °F 74% 29.76 in 6.0 mi NNE 19.6 mph 27.6 mph N/A   Overcast
9:16 AM 26.6 °F 12.7 °F 17.6 °F 69% 29.77 in 8.0 mi NNE 20.7 mph 26.5 mph 0.01 in   Overcast
9:36 AM 26.6 °F 12.4 °F 17.6 °F 69% 29.78 in 9.0 mi North 21.9 mph 27.6 mph 0.01 in   Overcast
9:56 AM 26.6 °F 12.7 °F 15.8 °F 64% 29.80 in 9.0 mi NNE 20.7 mph 32.2 mph 0.01 in   Overcast
10:16 AM 26.6 °F 13.1 °F 17.6 °F 69% 29.81 in 8.0 mi NNE 19.6 mph - 0.01 in   Overcast
10:36 AM 26.6 °F 12.7 °F 17.6 °F 69% 29.82 in 10.0 mi NNE 20.7 mph 27.6 mph 0.01 in   Overcast
10:56 AM 26.6 °F 12.7 °F 15.8 °F 64% 29.82 in 10.0 mi NNE 20.7 mph - 0.01 in   Overcast
11:16 AM 26.6 °F 13.4 °F 15.8 °F 64% 29.83 in 10.0 mi NNE 18.4 mph 21.9 mph 0.01 in   Overcast
11:36 AM 26.6 °F 16.8 °F 15.8 °F 64% 29.84 in 10.0 mi NNE 10.4 mph - 0.01 in   Overcast
11:56 AM 26.6 °F 14.7 °F 19.4 °F 74% 29.86 in 2.5 mi NNE 15.0 mph 26.5 mph 0.01 in   Mostly Cloudy
12:16 PM 26.6 °F 14.7 °F 19.4 °F 74% 29.86 in 10.0 mi NNE 15.0 mph 20.7 mph 0.01 in   Mostly Cloudy
12:36 PM 26.6 °F 15.7 °F 21.2 °F 80% 29.86 in 3.0 mi NNE 12.7 mph - 0.01 in   Overcast
12:56 PM 26.6 °F 14.3 °F 19.4 °F 74% 29.87 in 10.0 mi NNE 16.1 mph - 0.02 in   Overcast
1:16 PM 26.6 °F 14.3 °F 15.8 °F 64% 29.87 in 10.0 mi NNE 16.1 mph - N/A   Overcast
1:36 PM 26.6 °F 13.8 °F 21.2 °F 80% 29.87 in 7.0 mi North 17.3 mph 26.5 mph N/A   Overcast
1:56 PM 26.6 °F 13.1 °F 19.4 °F 74% 29.87 in 8.0 mi NNE 19.6 mph 23.0 mph N/A   Overcast
2:16 PM 26.6 °F 12.0 °F 19.4 °F 74% 29.87 in 10.0 mi NNE 23.0 mph - N/A   Overcast
2:36 PM 26.6 °F 13.8 °F 17.6 °F 69% 29.88 in 10.0 mi North 17.3 mph - N/A   Overcast
2:56 PM 28.4 °F 16.2 °F 15.8 °F 59% 29.88 in 10.0 mi NNE 17.3 mph - N/A   Overcast
3:16 PM 26.6 °F 12.0 °F 21.2 °F 80% 29.88 in 6.0 mi NNE 23.0 mph - N/A   Overcast
3:36 PM 26.6 °F 13.4 °F 17.6 °F 69% 29.87 in 7.0 mi North 18.4 mph - N/A   Mostly Cloudy
3:56 PM 26.6 °F 11.1 °F 19.4 °F 74% 29.88 in 9.0 mi North 26.5 mph - N/A   Mostly Cloudy
4:16 PM 26.6 °F 13.1 °F 21.2 °F 80% 29.89 in 3.0 mi NNE 19.6 mph 28.8 mph N/A   Overcast
4:36 PM 26.6 °F 13.1 °F 17.6 °F 69% 29.89 in 10.0 mi NNE 19.6 mph 23.0 mph N/A   Overcast
4:56 PM 26.6 °F 12.4 °F 15.8 °F 64% 29.90 in 10.0 mi NNE 21.9 mph 26.5 mph N/A   Overcast
5:16 PM 26.6 °F 14.7 °F 15.8 °F 64% 29.91 in 10.0 mi NNE 15.0 mph 23.0 mph N/A   Overcast
5:36 PM 26.6 °F 13.8 °F 15.8 °F 64% 29.91 in 10.0 mi NNE 17.3 mph 23.0 mph N/A   Overcast
5:56 PM 26.6 °F 14.3 °F 15.8 °F 64% 29.92 in 10.0 mi North 16.1 mph - N/A   Overcast
6:16 PM 26.6 °F 13.8 °F 15.8 °F 64% 29.93 in 10.0 mi North 17.3 mph - 0.01 in   Overcast
6:36 PM 26.6 °F 15.7 °F 15.8 °F 64% 29.94 in 10.0 mi NNE 12.7 mph - 0.01 in   Overcast
6:56 PM 26.6 °F 14.7 °F 17.6 °F 69% 29.95 in 10.0 mi North 15.0 mph - 0.01 in   Overcast
7:16 PM 26.6 °F 15.7 °F 17.6 °F 69% 29.95 in 10.0 mi NNE 12.7 mph - N/A   Overcast
7:36 PM 26.6 °F 13.8 °F 15.8 °F 64% 29.97 in 10.0 mi North 17.3 mph 20.7 mph N/A   Overcast
7:56 PM 26.6 °F 14.7 °F 17.6 °F 69% 29.98 in 8.0 mi North 15.0 mph 21.9 mph N/A   Overcast
8:16 PM 26.6 °F 15.7 °F 19.4 °F 74% 29.98 in 7.0 mi North 12.7 mph 20.7 mph N/A   Mostly Cloudy
8:36 PM 24.8 °F 11.1 °F 21.2 °F 86% 29.98 in 3.0 mi North 18.4 mph - 0.01 in   Overcast
8:56 PM 26.6 °F 13.8 °F 17.6 °F 69% 29.99 in 10.0 mi NNE 17.3 mph - 0.01 in   Overcast
9:16 PM 26.6 °F 15.7 °F 17.6 °F 69% 29.99 in 10.0 mi North 12.7 mph 19.6 mph N/A   Overcast
9:36 PM 26.6 °F 17.5 °F 21.2 °F 80% 29.99 in 8.0 mi North 9.2 mph - N/A   Overcast
9:56 PM 26.6 °F 15.2 °F 15.8 °F 64% 30.00 in 10.0 mi NNE 13.8 mph - N/A   Overcast
10:16 PM 26.6 °F 15.7 °F 17.6 °F 69% 30.01 in 9.0 mi North 12.7 mph 24.2 mph N/A   Overcast
10:36 PM 26.6 °F 16.2 °F 17.6 °F 69% 30.01 in 10.0 mi NNE 11.5 mph - N/A   Overcast
10:56 PM 24.8 °F 13.4 °F 21.2 °F 86% 30.02 in 8.0 mi North 12.7 mph - N/A   Overcast
11:16 PM 24.8 °F 14.6 °F 21.2 °F 86% 30.02 in 8.0 mi North 10.4 mph - N/A   Mostly Cloudy
11:36 PM 26.6 °F 15.7 °F 15.8 °F 64% 30.02 in 10.0 mi NNE 12.7 mph 19.6 mph 0.01 in   Overcast
11:56 PM 26.6 °F 14.3 °F 17.6 °F 69% 30.03 in 10.0 mi NNE 16.1 mph 19.6 mph 0.01 in   Overcast